Tracking 22019 objects as of 2-Dec-2020
HD Live streaming from Space Station
objects crossing your sky now

FENGYUN 1C DEB

Track FENGYUN 1C DEB now!
10-day predictions


NORAD ID: 30516
Int'l Code: 1999-025AJE
Perigee: 821.2 km
Apogee: 842.3 km
Inclination: 98.9 °
Period: 101.4 minutes
Semi major axis: 7202 km
RCS: 0.0157 m2 (small)
Launch date: May 10, 1999
Source: People's Republic of China (PRC)
Launch site: Taiyaun Space Center, China (TSC)

Note: This is SATELLITE DEBRIS
aabbcc
Your satellite tracking list
Your tracking list is empty




NASA's NSSDC Master Catalog

Two Line Element Set (TLE):
1 30516U 99025AJ  20336.91501745  .00001320  00000-0  63842-3 0  9998
2 30516  98.9343  25.6764 0014690 210.1202 323.4159 14.20224247715201
Source of the keplerian elements: AFSPC